Time,TemperatureF,DewpointF,PressureIn,WindDirection,WindDirectionDegrees,WindSpeedMPH,WindSpeedGustMPH,Humidity,HourlyPrecipIn,Conditions,Clouds,dailyrainin,SoftwareType,DateUTC
2013-12-10 00:11:00,5.0,-2.1,30.27,NW,310,0.0,0.0,72,0.00,CLR,CLR,0.00,WeatherDisplay:10.37,2013-12-10 06:11:00,
2013-12-10 00:41:00,5.0,-2.1,30.26,NW,310,0.0,0.0,72,0.00,CLR,CLR,0.00,WeatherDisplay:10.37,2013-12-10 06:41:00,
2013-12-10 01:11:00,5.0,-2.1,30.26,NW,310,0.0,0.0,72,0.00,CLR,CLR,0.00,WeatherDisplay:10.37,2013-12-10 07:11:00,
2013-12-10 01:41:00,3.9,-3.1,30.23,SSW,210,5.0,5.0,72,0.00,CLR,CLR,0.00,WeatherDisplay:10.37,2013-12-10 07:41:00,
2013-12-10 02:11:00,3.9,-3.1,30.23,SSW,210,5.0,5.0,72,0.00,CLR,CLR,0.00,WeatherDisplay:10.37,2013-12-10 08:11:00,
2013-12-10 02:41:00,3.0,-4.3,30.24,SW,220,5.0,5.0,71,0.00,CLR,CLR,0.00,WeatherDisplay:10.37,2013-12-10 08:41:00,
2013-12-10 03:11:00,3.0,-4.3,30.24,SW,220,5.0,5.0,71,0.00,CLR,CLR,0.00,WeatherDisplay:10.37,2013-12-10 09:11:00,
2013-12-10 03:41:00,3.0,-3.1,30.21,SSW,200,7.0,7.0,75,0.00,CLR,CLR,0.00,WeatherDisplay:10.37,2013-12-10 09:41:00,
2013-12-10 04:11:00,3.0,-3.1,30.21,SSW,200,7.0,7.0,75,0.00,CLR,CLR,0.00,WeatherDisplay:10.37,2013-12-10 10:11:00,
2013-12-10 04:41:00,6.1,-0.1,30.17,SSW,200,8.0,8.0,75,0.00,CLR,CLR,0.00,WeatherDisplay:10.37,2013-12-10 10:41:00,
2013-12-10 05:11:00,6.1,-0.1,30.17,SSW,200,8.0,8.0,75,0.00,CLR,CLR,0.00,WeatherDisplay:10.37,2013-12-10 11:11:00,
2013-12-10 05:41:00,8.1,0.9,30.16,SW,220,12.0,12.0,72,0.00,BKN,BKN,0.00,WeatherDisplay:10.37,2013-12-10 11:41:00,
2013-12-10 06:11:00,8.1,0.9,30.16,SW,220,12.0,12.0,72,0.00,BKN,BKN,0.00,WeatherDisplay:10.37,2013-12-10 12:11:00,
2013-12-10 06:41:00,10.0,1.9,30.10,SSW,210,18.0,28.0,69,0.00,OVC,OVC,0.00,WeatherDisplay:10.37,2013-12-10 12:41:00,
2013-12-10 07:11:00,10.0,1.9,30.10,SSW,210,18.0,28.0,69,0.00,OVC,OVC,0.00,WeatherDisplay:10.37,2013-12-10 13:11:00,
2013-12-10 07:41:00,10.0,1.9,30.10,SSW,210,16.0,16.0,69,0.00,CLR,CLR,0.00,WeatherDisplay:10.37,2013-12-10 13:41:00,
2013-12-10 08:11:00,10.0,1.9,30.10,SSW,210,16.0,16.0,69,0.00,CLR,CLR,0.00,WeatherDisplay:10.37,2013-12-10 14:11:00,
2013-12-10 08:41:00,12.0,1.8,30.11,SW,220,12.0,12.0,63,0.00,FEW,FEW,0.00,WeatherDisplay:10.37,2013-12-10 14:41:00,
2013-12-10 09:11:00,12.0,1.8,30.11,SW,220,12.0,12.0,63,0.00,FEW,FEW,0.00,WeatherDisplay:10.37,2013-12-10 15:11:00,
2013-12-10 09:41:00,18.0,2.9,30.13,WSW,250,14.0,24.0,51,0.00,SCT,SCT,0.00,WeatherDisplay:10.37,2013-12-10 15:41:00,
2013-12-10 10:11:00,18.0,2.9,30.13,WSW,250,14.0,24.0,51,0.00,SCT,SCT,0.00,WeatherDisplay:10.37,2013-12-10 16:11:00,
2013-12-10 10:41:00,21.9,7.8,30.15,West,260,21.0,35.0,54,0.00,CLR,CLR,0.00,WeatherDisplay:10.37,2013-12-10 16:41:00,
2013-12-10 11:11:00,21.9,7.8,30.15,West,260,21.0,35.0,54,0.00,CLR,CLR,0.00,WeatherDisplay:10.37,2013-12-10 17:11:00,
2013-12-10 11:41:00,23.0,8.8,30.15,West,280,17.0,32.0,54,0.00,CLR,CLR,0.00,WeatherDisplay:10.37,2013-12-10 17:41:00,
2013-12-10 12:11:00,23.0,8.8,30.15,West,280,17.0,32.0,54,0.00,CLR,CLR,0.00,WeatherDisplay:10.37,2013-12-10 18:11:00,
2013-12-10 12:41:00,25.0,10.7,30.16,West,280,18.0,29.0,54,0.00,CLR,CLR,0.00,WeatherDisplay:10.37,2013-12-10 18:41:00,
2013-12-10 13:11:00,25.0,10.7,30.16,West,280,18.0,29.0,54,0.00,CLR,CLR,0.00,WeatherDisplay:10.37,2013-12-10 19:11:00,
2013-12-10 13:41:00,26.1,7.6,30.17,WNW,290,15.0,32.0,45,0.00,CLR,CLR,0.00,WeatherDisplay:10.37,2013-12-10 19:41:00,
2013-12-10 14:11:00,26.1,7.6,30.17,WNW,290,15.0,32.0,45,0.00,CLR,CLR,0.00,WeatherDisplay:10.37,2013-12-10 20:11:00,
2013-12-10 14:41:00,25.0,5.6,30.20,West,280,21.0,32.0,43,0.00,CLR,CLR,0.00,WeatherDisplay:10.37,2013-12-10 20:41:00,
2013-12-10 15:11:00,25.0,5.6,30.21,WNW,290,14.0,32.0,43,0.00,CLR,CLR,0.00,WeatherDisplay:10.37,2013-12-10 21:11:00,
2013-12-10 15:41:00,25.0,5.6,30.21,WNW,290,14.0,29.0,43,0.00,CLR,CLR,0.00,WeatherDisplay:10.37,2013-12-10 21:41:00,
2013-12-10 16:11:00,25.0,5.6,30.21,WNW,290,14.0,29.0,43,0.00,CLR,CLR,0.00,WeatherDisplay:10.37,2013-12-10 22:11:00,
2013-12-10 16:41:00,24.1,5.8,30.24,West,270,16.0,29.0,45,0.00,CLR,CLR,0.00,WeatherDisplay:10.37,2013-12-10 22:41:00,
2013-12-10 17:11:00,24.1,5.8,30.24,West,270,16.0,29.0,45,0.00,CLR,CLR,0.00,WeatherDisplay:10.37,2013-12-10 23:11:00,
2013-12-10 17:41:00,21.0,4.8,30.23,WNW,300,3.0,3.0,49,0.00,CLR,CLR,0.00,WeatherDisplay:10.37,2013-12-10 23:41:00,
2013-12-10 18:11:00,21.0,4.8,30.23,WNW,300,3.0,3.0,49,0.00,CLR,CLR,0.00,WeatherDisplay:10.37,2013-12-11 00:11:00,
2013-12-10 18:41:00,19.9,5.9,30.25,WNW,300,0.0,0.0,54,0.00,CLR,CLR,0.00,WeatherDisplay:10.37,2013-12-11 00:41:00,
2013-12-10 19:11:00,19.9,5.9,30.25,WNW,300,0.0,0.0,54,0.00,CLR,CLR,0.00,WeatherDisplay:10.37,2013-12-11 01:11:00,
2013-12-10 19:41:00,18.0,6.0,30.27,WNW,300,0.0,0.0,59,0.00,CLR,CLR,0.00,WeatherDisplay:10.37,2013-12-11 01:41:00,
2013-12-10 20:11:00,18.0,6.0,30.27,WNW,300,0.0,0.0,59,0.00,CLR,CLR,0.00,WeatherDisplay:10.37,2013-12-11 02:11:00,
2013-12-10 20:41:00,19.0,5.9,30.28,WNW,300,0.0,0.0,56,0.00,CLR,CLR,0.00,WeatherDisplay:10.37,2013-12-11 02:41:00,
2013-12-10 21:11:00,19.0,5.9,30.28,WNW,300,0.0,0.0,56,0.00,CLR,CLR,0.00,WeatherDisplay:10.37,2013-12-11 03:11:00,
2013-12-10 21:41:00,19.0,5.9,30.28,WNW,300,0.0,0.0,56,0.00,BKN,BKN,0.00,WeatherDisplay:10.37,2013-12-11 03:41:00,
2013-12-10 22:11:00,19.0,5.9,30.28,WNW,300,0.0,0.0,56,0.00,BKN,BKN,0.00,WeatherDisplay:10.37,2013-12-11 04:11:00,
2013-12-10 22:41:00,18.0,9.8,30.30,WNW,300,0.0,0.0,70,0.00,OVC,OVC,0.00,WeatherDisplay:10.37,2013-12-11 04:41:00,
2013-12-10 23:11:00,18.0,9.8,30.30,WNW,300,0.0,0.0,70,0.00,OVC,OVC,0.00,WeatherDisplay:10.37,2013-12-11 05:11:00,
2013-12-10 23:41:00,19.0,10.9,30.31,WNW,300,0.0,0.0,70,0.00,OVC,OVC,0.00,WeatherDisplay:10.37,2013-12-11 05:41:00,